Location: Unspecified
(51.6250°N, 0.8230°E)
Time: 05:28:32
(UTC+00:00)

CZ-3 Stage 3 - Visible Passes

Search period start: 19 March 2019 00:00
Search period end: 29 March 2019 00:00
Orbit: 469 x 34723 km, 30.5° (Epoch: 18 March)

Date Brightness Start Highest point End Pass type
(mag) Time Alt. Az. Time Alt. Az. Time Alt. Az.
20 Mar 6.3 03:34:10 10° SSW 03:53:17 39° SE 12:12:37 10° SSE visible
23 Mar 6.2 03:24:27 12° SSW 03:42:27 39° SE 12:00:24 10° SSE visible
26 Mar 6.2 03:14:41 14° SSW 03:31:38 39° SE 11:48:04 10° SSE visible
